Regional Weather Roundup
Issued by NWS Wakefield, VA

Home | Current Version | Previous Version | Graphics & Text | Print | Product List | Glossary On
Versions: 1 2 3 4 5 6 7 8 9 10 11 12 13 14 15 16 17 18 19 20 21 22 23 24 25 26 27
000
ASUS41 KAKQ 231415
RWRAKQ

REGIONAL WEATHER ROUNDUP
NATIONAL WEATHER SERVICE WAKEFIELD VA
1000 AM EDT SUN JUL 23 2017

Note: "fair" indicates few or no clouds below 12,000 feet with no
significant weather and/or obstructions to visibility. * = Denotes
station may not report precipitation (e.g., rain,snow,etc.),
thunder or fog.

VAZ042-051-052>054-056-231500-
NORTHERN VIRGINIA

CITY           SKY/WX    TMP DP  RH WIND       PRES   REMARKS
WASH NATIONAL  CLOUDY    82  76  81 E3        29.80S
DULLES         CLOUDY    82  72  71 W7        29.81S
FORT BELVOIR   CLOUDY    84  73  69 W5        29.80S
QUANTICO       CLOUDY    83  77  82 CALM      29.81S
FREDERICKSBRG*   N/A     82  78  89 MISG      29.81S
STAFFORD*      PTSUNNY   81  76  83 NW5       29.85S
WARRENTON      CLOUDY    80  73  79 CALM      29.81F
CULPEPER*      CLOUDY    80  76  87 CALM      29.83S
MANASSAS*      MOSUNNY   80  75  84 CALM      29.81F
LEESBURG*      PTSUNNY   82  77  83 W5        29.83S
WINCHESTER     MOSUNNY   77  72  83 W6        29.83S
FRONT ROYAL*   PTSUNNY   81  73  78 SW3       29.82F
LURAY*         CLOUDY    77  72  83 CALM      29.86R
$$

VAZ048-049-060>072-079>083-231500-
CENTRAL AND SOUTH CENTRAL VIRGINIA

CITY           SKY/WX    TMP DP  RH WIND       PRES   REMARKS
RICHMOND       CLOUDY    84  75  74 W9        29.82S
CHESTERFIELD*  FAIR      84  76  76 W9        29.84R
PETERSBURG*    MOSUNNY   88  73  61 CALM      29.84R HX  95
HANOVER        CLOUDY    84  72  67 W7        29.84R
TAPPAHANNOCK*    N/A    N/A N/A N/A MISG        N/A
QUINTON*       FAIR      83  77  81 CALM      29.81S
CHARLOTTSVILLE CLOUDY    81  72  74 SW5       29.84R
GORDONSVILLE*  CLOUDY    78  77  98 CALM      29.83S
ORANGE*        CLOUDY    79  73  83 CALM      29.83S
LOUISA*        PTSUNNY   75  72  88 SW3       29.83S
BUMPASS*       CLOUDY    77  76  96 W5        29.83R
FARMVILLE*     NOT AVBL
CREWE*         FAIR      86  73  64 W5        29.85R
FORT PICKETT*  FAIR     N/A N/A N/A SW6       29.85S
CHASE CITY*    FAIR      87  75  67 W5        29.86S HX  95
CLARKSVILLE*   FAIR      86  77  74 SW5       29.86S HX  97
SOUTH HILL*    CLOUDY    85  77  76 SW8       29.92R HX  95
LAWRENCEVILLE* FAIR      87  75  68 SW9       29.85S HX  97
EMPORIA*       CLOUDY    81  73  78 S5        29.86S
$$

VAZ088>098-231500-
SOUTHEAST VIRGINIA

CITY           SKY/WX    TMP DP  RH WIND       PRES   REMARKS
NORFOLK        SUNNY     87  76  69 SW10      29.81S HX  97
VIRGINIA BEACH CLOUDY    85  75  72 SW10      29.81S
NORFOLK NAVAL  PTSUNNY   88  76  67 VRB7      29.83S HX  99
WEST POINT*    MOSUNNY   86  74  66 SW9       29.83R
SALUDA*        FAIR      84  78  82 W3        29.81S HX  95
NEWPORT NEWS   PTSUNNY   84  75  74 SW14      29.82R
LANGLEY AFB    PTSUNNY   86  77  74 W14       29.82R HX  96
FORT EUSTIS    PTSUNNY   86  76  72 SW7       29.80R HX  95
WILLIAMSBURG*  MOSUNNY   90  75  62 W8        29.83R HX 100
HR EXEC AP*    FAIR      84  75  74 W7        29.81R
FRANKLIN*      MOSUNNY   84  75  74 SW8       29.85R
US460-WAKEFLD  CLOUDY    84  76  76 SW7       29.83R
$$

VAZ020-022-025-037-045-231500-
WEST CENTRAL AND SOUTHWEST VIRGINIA

CITY           SKY/WX    TMP DP  RH WIND       PRES   REMARKS
STAUNTON*      CLOUDY    79  70  74 SW7       29.90S
WAYNESBORO*    CLOUDY    77  70  79 SW10      29.91R
HOT SPRINGS VA LGT RAIN  64  61  88 W20G29    30.03F
LYNCHBURG      CLOUDY    81  70  69 VRB5      29.90R
DANVILLE       CLOUDY    82  76  81 W8        29.89R
SOUTH BOSTON*  FAIR      85  74  70 W3        29.87R
MARTINSVILLE   CLOUDY    80  72  76 CALM      29.93S
ROANOKE        CLOUDY    83  63  50 W13G21    29.93R
BLACKSBURG     CLOUDY    75  65  70 W7G18     30.01S
DUBLIN*        PTSUNNY   79  61  53 W10G16    30.00F
MARION*        CLOUDY    75  65  71 SW8       30.05S
HILLSVILLE*    CLOUDY    76  60  56 NW15G22   30.01F
RICHLANDS*     PTSUNNY   71  66  87 S6        30.02F
WISE*          PTSUNNY   72  72 100 S5        30.03F
ABINGDON*      CLOUDY    80  70  71 CALM      30.01F
$$

MDZ021>025-VAZ099-100-231500-
SOUTHERN MARYLAND AND THE DELMARVA PENINSULA

CITY           SKY/WX    TMP DP  RH WIND       PRES   REMARKS
PATUXENT RIVER CLOUDY    83  76  79 W5        29.80R
BAY BRIDGE APT CLOUDY    81  75  83 N5        29.79S
LEONARDTOWN    PTSUNNY   81  73  78 NW5       29.82S
DOVER          MOSUNNY   81  81 100 W5        29.77S
GEORGETOWN     MOSUNNY   82  74  76 VRB7      29.80S
EASTON         MOSUNNY   82  75  78 NW8       29.83S
CAMBRIDGE      SUNNY     82  75  78 VRB6      29.80R
SALISBURY      MOSUNNY   82  77  83 W8        29.79S
OCEAN CITY     PTSUNNY   80  76  87 S3        29.79S
WALLOPS ISLAND MOSUNNY   84  78  82 W7        29.80S HX  95
ACCOMACK*      MOSUNNY   84  76  75 W7        29.81S
$$

NCZ012>017-030>032-231500-
NORTH CENTRAL AND EASTERN NORTH CAROLINA

CITY           SKY/WX    TMP DP  RH WIND       PRES   REMARKS
ROANOKE RAPIDS FAIR      86  75  70 SW10      29.87R HX  95
RALEIGH        CLOUDY    88  76  67 SW14      29.89F HX  99
ELIZABETH CITY MOSUNNY   85  79  82 SW15G23   29.84S HX  98
AHOSKIE*         N/A     85  78  79 S3        29.86R HX  96
EDENTON*       SUNNY     85  77  75 W8        29.86F HX  96
CURRITUCK*     SUNNY     86  76  72 SW15      29.84S HX  96
KILL DEVIL HLS LGT RAIN  81  75  81 SW8       29.84R
MANTEO         MOSUNNY   86  76  71 W15G22    29.86R HX  95
CAPE HATTERAS  SUNNY     82  75  79 SW15G22   29.90R
TARBORO*       NOT AVBL
GOLDSBORO      NOT AVBL
WASHINGTON     MOSUNNY   84  76  74 SW8       29.89S
GREENVILLE     SUNNY     86  77  74 SW10G16   29.90S HX  97
NEW BERN       SUNNY     87  77  72 SW10G18   29.91R HX  99
WILMINGTON     SUNNY     86  77  74 S16G22    29.93S HX  97
$$

VAZ048-231500-
ELSEWHERE

CITY           SKY/WX    TMP DP  RH WIND       PRES   REMARKS
HARRISBURG PA  CLOUDY    80  72  76 CALM      29.78S
BALTIMORE      CLOUDY    83  74  74 VRB3      29.78S
ANNAPOLIS      CLOUDY    82  77  84 NW7       29.78S
ANDREWS AFB    CLOUDY    82  73  75 W7        29.80S
PHILADELPHIA   PTSUNNY   79  71  76 N5        29.78S
HENDERSON NC   CLOUDY    80  72  76 SW10      29.89R
GREENSBORO     CLOUDY    84  76  76 SW7       29.91S
ROCKY MOUNT    SUNNY     87  77  72 W12       29.88R HX  99
$$

VAZ100-231500-
MARINE

STATION/POSITION TIME  TEMP    WIND        PRES    WAVE   SWELL
                       AIR SEA DIR/SP/G            HT/PER HT/PER
                 (UTC) (F)     (DEG/KT/KT) (MB)    (FT/S) (FT/S)
BRANDYWINE LGT   1348   76     260/  6/  6 1009.2R
CAPE MAY NJ      1342   77 75  280/  3/  5 1008.3R
LEWES DE         1348   80 72  280/  6/  8 1008.4R
15NM E FENWICK I 1350   75 73  220/  4/  6 1009.2R   3/ 7   2/ 7
OCEAN-CITY-INLET 1348   76 70  190/  5/  6 1009.0F
WACHAPREAGUE VA  1348   83 81  260/  3/  8 1009.1S
THOMAS POINT MD  1400   79 83  290/  7/  8   N/A
GOOSES REEF MD   1400   82 84  320/ 10/ 12 1009.8
COVE POINT MD    1348   81     290/  4/  6 1009.7R
SOLOMONS ISLAND  1348   81 84  300/  5/  7   N/A
BISHOPS HEAD MD  1348   81 84  290/  9/ 12 1009.2R
PINEY POINT MD   1348          320/  4/  5   N/A
POTOMAC MD       1400   81 84  310/  6/  8 1008.3    1
CAMBRIDGE MD     1348   83 87              1009.8R
LEWISETTA VA     1348   82 85  270/  4/  5 1009.1R
RAPPAHANNOCK LGT 1348          250/  9/ 10 1010.0R
STINGRAY PT      1350   83     300/  6/  8 1010.1R
YORK RVR RNG VA  1348   84     270/ 13/ 15 1009.7R
YORKTOWN VA      1348   83 83  250/ 11/ 16 1009.3R
JAMESTOWN VA     1400      87  280/  8/ 12   N/A
DOMINION TERM VA 1336   83     240/  9/ 12 1009.7R
KIPTOPEKE VA     1348      80  240/ 10/ 12   N/A
CHES BAY BRIDGE  1336   82 70  250/ 15/ 17 1009.4R
CAPE HENRY VA    1336   84     240/ 12/ 17   N/A
WILLOUBY STN VA  1336   83     230/ 13/ 14 1009.5R
S CRANEY ISL VA  1336   84     220/  6/ 10 1009.6R
CAPE HENRY BUOY  1400      65                N/A     2/10
1ST LANDING BUOY 1400   82 78              1009.4    2/ 3
64NM E OF VA BCH 1350   80 79  240/ 16/ 19 1010.4R   5/ 6   2/11
DUCK PIER NC     1336   82 58  240/ 14/ 20 1010.2R
44100 DUCK FRF   1305      72                N/A     3/ 6
44056 DUCK FRF   1400      61                N/A     2/10
OREGON INLET NC  1336   83 83  210/ 19/ 24 1010.8R
HATTERAS NC      1336   80 76  220/ 13/ 19 1012.2R
DIAMOND SHLS NC  1350   84 85  230/ 25/ 29 1011.8F   6/ 7   2/ 9
CAPE LOOKOUT NC  1400   83     210/ 14/ 19 1012.7F
$$




USA.gov is the U.S. government's official web portal to all federal, state and local government web resources and services.